This demonstration page uses our WeatherBlox Daily Observations layout. Learn more.

Hourly Observations for July 27, 2017

Temp ( °F °C ) Dew Point ( °F °C ) Humidity (%) Winds ( mph kmh ) Pressure ( in mb ) Visibility ( mi km ) Precip ( " mm )
12:42 am 00:42 Cloudy with Mist and Fog 73 22.8 72 22.2 96 96 N 5 7 30 1016 1.75 2.816345 0 0
12:54 am 00:54 Mostly Cloudy with Fog 72 22.2 71 21.7 97 97 N 5 7 30 1016 0.5 0.80467 0 0
1:05 am 01:05 Mostly Cloudy with Fog 72 22.2 71 21.7 97 97 N 5 7 30 1016 0.25 0.402335 0 0
1:25 am 01:25 Mostly Cloudy with Fog 72 22.2 71 21.7 97 97 N 3 6 30 1016 0.5 0.80467 0 0
1:37 am 01:37 Mostly Cloudy with Mist and Fog 71 21.7 70 21.1 96 96 N 3 6 30 1016 1 1.60934 0 0
1:45 am 01:45 Mostly Cloudy with Mist and Fog 72 22.2 71 21.7 97 97 Calm 30 1016 3 4.82802 0 0
1:54 am 01:54 Mostly Cloudy with Mist and Fog 71 21.7 70 21.1 96 96 Calm 29.99 1016 5 8.0467 0 0
2:06 am 02:06 Partly Cloudy with Mist and Fog 71 21.7 70 21.1 96 96 Calm 30 1016 5 8.0467 0 0
2:54 am 02:54 Clear with Mist and Fog 70 21.1 69 20.6 97 97 N 6 9 29.98 1015 4 6.43736 0 0
3:44 am 03:44 Partly Cloudy 72 22.2 71 21.7 97 97 N 9 15 30 1016 8 12.87472 0 0
3:48 am 03:48 Mostly Cloudy 72 22 72 22 100 100 N 10 17 30 1016 8 12.87472 0 0
3:54 am 03:54 Mostly Cloudy 73 22.8 71 21.7 94 94 N 9 15 29.99 1016 7 11.26538 0 0
4:17 am 04:17 Mostly Cloudy 72 22.2 70 21.1 94 94 N 9 15 30 1016 8 12.87472 0 0
4:29 am 04:29 Mostly Clear 72 22.2 70 21.1 94 94 N 9 15 30 1016 10 16.0934 0 0
4:54 am 04:54 Clear 72 22.2 69 20.6 91 91 NNE 10 17 30.01 1016 10 16.0934 0 0
5:54 am 05:54 Clear 69 20.6 66 18.9 90 90 NNE 9 15 30.01 1016 10 16.0934 0 0
6:54 am 06:54 Sunny 68 20 65 18.3 90 90 N 8 13 30.03 1017 10 16.0934 0 0
7:54 am 07:54 Sunny 71 21.7 65 18.3 81 81 NNE 10 17 30.04 1017 10 16.0934 0 0
8:54 am 08:54 Sunny 73 22.8 65 18.3 76 76 NNE 13 20 30.04 1017 10 16.0934 0 0
9:54 am 09:54 Sunny 76 24.4 65 18.3 69 69 NNE 10 17 30.05 1018 10 16.0934 0 0
10:54 am 10:54 Sunny 78 25.6 66 18.9 67 67 NE 8 13 30.05 1018 10 16.0934 0 0
11:54 am 11:54 Partly Cloudy 80 26.7 67 19.4 64 64 NNE 9 15 30.05 1018 10 16.0934 0 0
12:54 pm 12:54 Mostly Sunny 81 27.2 66 18.9 61 61 NE 9 15 30.03 1017 10 16.0934 0 0
1:54 pm 13:54 Mostly Sunny 83 28.3 65 18.3 55 55 NNE 14 22 30.02 1017 10 16.0934 0 0
2:54 pm 14:54 Mostly Sunny 83 28.3 64 17.8 53 53 NE 12 19 30.01 1016 10 16.0934 0 0
3:54 pm 15:54 Sunny 84 28.9 64 17.8 51 51 NE 8 13 30.01 1016 10 16.0934 0 0
4:54 pm 16:54 Mostly Sunny 82 27.8 64 17.8 55 55 NE 10 17 30 1016 10 16.0934 0 0
5:54 pm 17:54 Mostly Cloudy 82 27.8 64 17.8 55 55 ENE 10 17 29.98 1015 10 16.0934 0 0
6:54 pm 18:54 Sunny 82 27.8 63 17.2 53 53 NNE 13 20 29.98 1015 10 16.0934 0 0
7:54 pm 19:54 Sunny 80 26.7 64 17.8 58 58 NNE 8 13 29.97 1015 10 16.0934 0 0
8:54 pm 20:54 Clear 74 23.3 65 18.3 74 74 NNE 7 11 29.98 1015 10 16.0934 0 0
9:54 pm 21:54 Clear 71 21.7 65 18.3 81 81 N 8 13 29.99 1016 10 16.0934 0 0
10:54 pm 22:54 Clear 70 21.1 65 18.3 84 84 E 3 6 29.99 1016 10 16.0934 0 0
11:54 pm 23:54 Clear 71 21.7 64 17.8 79 79 Calm 30 1016 10 16.0934 0 0

Powered by AerisWeather